Terug naar catalogus

SL-8 R/B

ActiefPO
NORAD 6708·ROCKET BODY·🇷🇺 Russia

Gelanceerd Jun 20, 1973 vanaf Plesetsk Cosmodrome

Loading…

Volgende Passages (komende 24 uur)

TLE

VersSource: Space-Track

Epoch: Sep 14, 2026, 12:30 UTC

1 06708U 73042B   26257.52117767  .00000142  00000-0  13385-3 0  9995
2 06708  82.9409  81.6664 0013180 171.1221 205.3531 13.74578642668291

Volg SL-8 R/B in realtime met AllMySat

Download on the App Store